{"data":{"norad_id":67700,"intl_designator":"2026-025H","name":"STARLINK-36712","alt_names":[],"object_type":"PAYLOAD","status":"ACTIVE","operator":null,"country":"US","launch_date":"2026-02-07","launch_site_code":"AFWTR","launch_vehicle":null,"mission":null,"orbit_class":"UNKNOWN","rcs_meters":null,"size_class":null,"mass_kg":null,"dimensions":null,"purposes":["comms"],"wikipedia_slug":null,"has_3d_model":false,"image_url":null,"decayed_at":null,"tle_current":{"epoch":"2026-05-25T01:11:58.663392Z","epoch_age_seconds":70814,"freshness":"FRESH","line1":"1 67700U 26025H   26145.04998453  .00027392  00000+0  84740-3 0  9993","line2":"2 67700  97.2851 256.6441 0000462  77.7514 282.3781 15.33457334 17710","mean_motion":15.33457334,"eccentricity":4.62e-5,"inclination_deg":97.2851,"raan_deg":256.6441,"arg_perigee_deg":77.7514,"mean_anomaly_deg":282.3781,"bstar":0.0008474,"rev_number":1771,"period_min":93.905449344572,"perigee_km":465.19030108915,"apogee_km":465.82265374647,"semimajor_km":6843.6434774178,"source":"CELESTRAK","updated_at":"2026-05-25T13:38:21.664071Z"}}}